Location: Bayshore Village Mobile Home Park
(26.6945°N, 81.8642°W)
Time: 15:54:03
(UTC+00:00)

ALOS - Pass Details

Date: 17 June 2021
Orbit: 683 x 684 km, 97.9° (Epoch: 27 July)

Event Time Altitude Azimuth Distance (km) Brightness Sun altitude
Rises 09:02:20 0° 20° (NNE) 3,046 6.6 -18.0°
Reaches altitude 10° 09:04:40 10° 26° (NNE) 2,128 5.8 -17.6°
Maximum altitude 09:09:08 46° 100° (E) 917 3.2 -16.9°
Drops below altitude 10° 09:13:34 10° 173° (S) 2,117 4.5 -16.1°
Enters shadow 09:14:08 - 175° (S) 2,338 4.7 -16.0°
